Location: Unspecified
(0.0000°N, 0.0000°E)
Time: 15:23:40
(UTC+00:00)

Courier 1B - Visible Passes

Search period start: 01 July 2016 00:00
Search period end: 11 July 2016 00:00
Orbit: 963 x 1209 km, 28.3° (Epoch: 01 July)

Date Brightness Start Highest point End Pass type
(mag) Time Alt. Az. Time Alt. Az. Time Alt. Az.
01 Jul 7.8 19:42:40 10° SW 19:48:35 43° SSE 19:48:35 43° SSE visible
02 Jul 10.3 05:22:58 10° N 05:26:48 14° NNE 05:30:42 10° NE visible
02 Jul 8.3 18:49:21 10° SSW 18:54:59 30° SSE 18:59:14 16° E visible
02 Jul 8.6 20:42:35 10° WSW 20:46:13 35° WSW 20:46:13 35° WSW visible
03 Jul 10.5 04:31:08 10° N 04:32:28 10° NNE 04:33:48 10° NNE visible
03 Jul 7.3 19:48:50 10° WSW 19:55:19 81° SSE 19:57:01 52° ENE visible
04 Jul 10.1 05:27:53 10° NNW 05:33:46 23° NNE 05:39:46 10° ENE visible
04 Jul 7.6 18:55:13 10° SW 19:01:37 57° SSE 19:07:54 10° ENE visible
04 Jul 8.7 20:49:43 10° W 20:54:54 37° NW 20:54:54 37° NW visible
05 Jul 10.2 04:34:51 10° NNW 04:39:36 17° NNE 04:44:26 10° ENE visible
05 Jul 8.1 19:55:36 10° WSW 20:01:54 53° NNW 20:05:50 23° NE visible
05 Jul 10.3 21:52:45 10° WNW 21:52:50 10° WNW 21:52:50 10° WNW visible
06 Jul 10.3 03:42:19 10° N 03:45:21 13° NNE 03:48:27 10° NE visible
06 Jul 9.4 05:33:25 10° NW 05:40:26 39° NNE 05:47:39 10° E visible
06 Jul 7.6 19:01:38 10° WSW 19:08:12 76° NNW 19:14:39 10° NE visible
06 Jul 9.5 20:57:43 10° WNW 21:02:24 21° NNW 21:03:45 20° N visible
07 Jul 9.7 04:40:05 10° NNW 04:46:24 29° NNE 04:52:56 10° E visible
07 Jul 9.2 20:03:04 10° W 20:08:33 29° NNW 20:14:02 10° NNE visible
08 Jul 9.9 03:46:58 10° NNW 03:52:19 21° NNE 03:57:51 10° ENE visible
08 Jul 8.7 19:08:40 10° W 19:14:46 40° NNW 19:20:46 10° NE visible
08 Jul 10.1 21:07:25 10° NW 21:09:24 11° NNW 21:11:23 10° N visible
09 Jul 10.1 02:54:37 11° N 02:58:12 15° NNE 03:02:19 10° ENE visible
09 Jul 8.7 04:45:50 10° NW 04:52:58 49° NNE 05:00:27 10° ESE visible
09 Jul 9.9 20:11:36 10° WNW 20:15:22 16° NNW 20:19:09 10° NNE visible
10 Jul 10.4 02:05:27 10° NNE 02:05:27 10° NNE 02:05:42 10° NE visible
10 Jul 9.1 03:52:27 10° NW 03:59:00 36° NNE 04:05:54 10° E visible
10 Jul 9.7 19:16:31 10° WNW 19:21:27 22° NNW 19:26:20 10° NNE visible
